period_start,C,m1,H,J0,J1,J2,J3,J4,J5,JA,JB,JC,JD,JJ,JK,JN,#
2014-11-01 00:01:19,0.17,6.57,0.00,23.27,27.75,30.73,4.72,28.64,1010.27,2027.81,1591.93,1980.14,2102.00,349.69,344.80,33.24,0000 0000 0000 0000 000000
2014-11-01 00:06:21,0.23,6.58,0.00,23.23,27.75,30.73,4.73,28.63,1010.27,2027.75,1590.93,1979.43,2101.14,349.83,345.14,33.27,0000 0000 0000 0000 000000
2014-11-01 00:11:22,0.18,6.58,0.00,23.27,27.75,30.73,4.81,28.62,1010.27,2027.77,1590.01,1978.82,2100.40,350.11,345.20,33.30,0000 0000 0000 0000 000000
2014-11-01 00:16:23,0.20,6.59,0.00,23.29,27.75,30.71,4.80,28.61,1010.34,2027.84,1589.06,1978.02,2099.65,350.26,345.55,33.33,0000 0000 0000 0000 000000
2014-11-01 00:21:24,0.22,6.60,0.00,23.26,27.75,30.72,4.68,28.47,1010.75,2027.92,1588.18,1977.32,2098.90,349.80,345.17,33.36,0000 0000 0000 0000 000000
2014-11-01 00:26:26,0.18,6.60,0.00,23.25,27.75,30.72,4.84,28.50,1010.76,2027.82,1587.21,1976.66,2098.07,350.21,345.49,33.39,0000 0000 0000 0000 000000
2014-11-01 00:31:27,0.17,6.61,0.00,23.31,27.75,30.67,4.79,28.48,1010.76,2027.82,1586.27,1975.96,2097.25,350.03,345.49,33.42,0000 0000 0000 0000 000000
2014-11-01 00:36:28,0.23,6.62,0.00,23.35,27.75,30.67,4.73,28.67,1010.76,2027.83,1585.34,1975.12,2096.47,349.86,345.06,33.45,0000 0000 0000 0000 000000
2014-11-01 00:41:29,0.22,6.62,0.00,23.33,27.75,30.62,4.82,28.82,1010.76,2027.64,1584.24,1974.27,2095.61,350.21,345.52,33.48,0000 0000 0000 0000 000000
2014-11-01 00:46:31,0.18,6.63,0.00,23.28,27.75,30.59,4.77,28.66,1010.76,2027.78,1583.44,1973.67,2094.78,350.34,345.79,33.51,0000 0000 0000 0000 000000
2014-11-01 00:51:32,0.17,6.63,0.00,23.28,27.75,30.66,4.73,28.58,1010.76,2027.72,1582.47,1972.91,2093.93,349.52,344.79,33.54,0000 0000 0000 0000 000000
2014-11-01 00:56:33,0.21,6.64,0.00,23.18,27.75,30.71,4.76,28.48,1010.68,2027.68,1581.36,1972.08,2093.06,350.11,345.66,33.56,0000 0000 0000 0000 000000
2014-11-01 01:01:34,0.21,6.64,0.00,23.14,27.75,30.73,4.82,28.58,1010.29,2027.74,1580.57,1971.43,2092.31,349.94,345.32,33.59,0000 0000 0000 0000 000000
2014-11-01 01:06:35,0.16,6.65,0.00,23.22,27.75,30.72,4.75,28.62,1010.27,2027.77,1579.79,1970.89,2091.67,349.54,344.72,33.62,0000 0000 0000 0000 000000
2014-11-01 01:11:37,0.12,6.65,0.00,23.30,27.75,30.71,4.75,28.58,1010.27,2027.62,1578.88,1970.08,2090.96,349.48,344.67,33.65,0000 0000 0000 0000 000000
2014-11-01 01:16:38,0.23,6.66,0.00,23.29,27.75,30.70,4.75,28.68,1010.26,2027.77,1578.04,1969.54,2090.14,350.35,345.31,33.68,0000 0000 0000 0000 000000
2014-11-01 01:21:40,0.17,6.67,0.00,23.38,27.75,30.69,4.77,28.50,1010.27,2027.77,1577.17,1968.94,2089.52,349.92,345.17,33.71,0000 0000 0000 0000 000000
2014-11-01 01:26:41,0.19,6.67,0.00,23.32,27.75,30.65,4.71,28.48,1010.34,2027.74,1576.37,1968.13,2088.88,349.78,344.99,33.74,0000 0000 0000 0000 000000
2014-11-01 01:31:42,0.17,6.67,0.00,23.31,27.75,30.63,4.73,28.48,1010.32,2027.72,1575.62,1967.78,2088.06,350.15,345.19,33.77,0000 0000 0000 0000 000000
2014-11-01 01:36:43,0.14,6.68,0.00,23.23,27.75,30.64,4.84,28.66,1010.29,2027.81,1574.85,1967.05,2087.62,350.11,345.27,33.80,0000 0000 0000 0000 000000
2014-11-01 01:41:45,0.16,6.68,0.00,23.19,27.75,30.71,4.72,28.64,1010.27,2027.69,1574.03,1966.40,2086.97,350.01,345.30,33.83,0000 0000 0000 0000 000000
2014-11-01 01:46:46,0.14,6.69,0.00,23.27,27.75,30.71,4.73,28.52,1010.27,2027.73,1573.27,1965.95,2086.15,350.09,345.12,33.86,0000 0000 0000 0000 000000
2014-11-01 01:51:48,0.21,6.69,0.00,23.33,27.75,30.70,4.81,28.63,1010.27,2027.68,1572.46,1965.15,2085.47,350.27,345.26,33.89,0000 0000 0000 0000 000000
2014-11-01 01:56:49,0.14,6.70,0.00,23.32,27.75,30.68,4.78,28.62,1010.27,2027.42,1571.62,1964.61,2084.83,350.07,345.26,33.92,0000 0000 0000 0000 000000
2014-11-01 02:01:50,0.14,6.70,0.00,23.39,27.75,30.66,4.78,28.61,1010.27,2027.56,1570.84,1964.00,2084.05,349.96,345.00,33.95,0000 0000 0000 0000 000000
2014-11-01 02:06:51,0.22,6.71,0.00,23.31,27.75,30.64,4.79,28.58,1010.27,2027.57,1569.94,1963.26,2083.32,350.13,345.31,33.97,0000 0000 0000 0000 000000
2014-11-01 02:11:53,0.12,6.71,0.00,23.25,27.75,30.67,4.76,28.76,1010.27,2027.65,1569.11,1962.82,2082.70,349.96,345.20,34.00,0000 0000 0000 0000 000000
2014-11-01 02:16:54,0.23,6.72,0.00,23.19,27.75,30.69,4.73,28.65,1010.29,2027.78,1568.35,1962.04,2082.00,349.95,345.25,34.03,0000 0000 0000 0000 000000
2014-11-01 02:21:55,0.24,6.73,0.00,23.24,27.75,30.72,4.75,28.54,1010.28,2027.83,1567.46,1961.44,2081.19,350.42,345.66,34.06,0000 0000 0000 0000 000000
2014-11-01 02:26:56,0.14,6.73,0.00,23.28,27.75,30.71,4.79,28.59,1010.27,2027.87,1566.67,1960.91,2080.62,350.02,345.17,34.09,0000 0000 0000 0000 000000
2014-11-01 02:31:58,0.17,6.74,0.00,23.28,27.75,30.71,4.76,28.48,1010.29,2027.89,1565.85,1960.12,2079.90,349.81,344.74,34.12,0000 0000 0000 0000 000000
2014-11-01 02:36:59,0.18,6.74,0.00,23.32,27.75,30.69,4.80,28.64,1010.56,2027.84,1564.90,1959.54,2079.09,350.17,345.50,34.15,0000 0000 0000 0000 000000
2014-11-01 02:42:00,0.15,6.75,0.00,23.39,27.75,30.66,4.77,28.55,1010.75,2027.74,1564.04,1958.93,2078.25,349.95,345.12,34.18,0000 0000 0000 0000 000000
2014-11-01 02:47:02,0.19,6.75,0.00,23.38,27.75,30.63,4.76,28.53,1010.76,2027.67,1563.24,1958.12,2077.63,350.08,345.29,34.21,0000 0000 0000 0000 000000
2014-11-01 02:52:03,0.14,6.76,0.00,23.22,27.75,30.65,4.68,28.48,1010.77,2027.61,1562.44,1957.56,2076.96,349.80,345.21,34.24,0000 0000 0000 0000 000000
2014-11-01 02:57:04,0.22,6.76,0.00,23.11,27.75,30.70,4.73,28.43,1010.77,2027.78,1561.55,1956.98,2076.13,349.26,344.73,34.27,0000 0000 0000 0000 000000
2014-11-01 03:02:05,0.19,6.77,0.00,23.18,27.75,30.72,4.78,28.48,1010.77,2027.82,1560.82,1956.16,2075.47,350.06,345.50,34.30,0000 0000 0000 0000 000000
2014-11-01 03:07:07,0.14,6.77,0.00,23.19,27.75,30.72,4.74,28.48,1010.84,2027.77,1559.94,1955.63,2074.78,349.55,345.21,34.33,0000 0000 0000 0000 000000
2014-11-01 03:12:08,0.11,6.78,0.00,23.24,27.75,30.73,4.70,28.57,1011.07,2027.45,1559.00,1954.96,2073.99,349.26,344.70,34.36,0000 0000 0000 0000 000000
2014-11-01 03:17:09,0.26,6.78,0.00,23.31,27.75,30.71,4.76,28.52,1011.18,2027.57,1558.09,1954.16,2073.16,349.46,344.96,34.39,0000 0000 0000 0000 000000
2014-11-01 03:22:11,0.14,6.79,0.00,23.39,27.75,30.65,4.74,28.56,1011.23,2027.37,1557.29,1953.56,2072.47,349.77,345.18,34.41,0000 0000 0000 0000 000000
2014-11-01 03:27:12,0.12,6.79,0.00,23.26,27.75,30.64,4.73,28.55,1011.24,2027.23,1556.35,1952.97,2071.85,350.08,345.66,34.44,0000 0000 0000 0000 000000
2014-11-01 03:32:14,0.20,6.80,0.00,23.10,27.75,30.70,4.75,28.56,1011.24,2027.21,1555.66,1952.18,2071.05,349.49,345.17,34.47,0000 0000 0000 0000 000000
2014-11-01 03:37:15,0.15,6.80,0.00,23.15,27.75,30.71,4.78,28.55,1011.25,2027.27,1554.84,1951.79,2070.36,349.79,345.41,34.50,0000 0000 0000 0000 000000
2014-11-01 03:42:16,0.15,6.81,0.00,23.21,27.75,30.73,4.76,28.64,1011.25,2027.17,1554.02,1951.03,2069.79,349.58,345.18,34.53,0000 0000 0000 0000 000000
2014-11-01 03:47:18,0.26,6.82,0.00,23.23,27.75,30.71,4.78,28.61,1011.25,2027.34,1553.20,1950.40,2069.04,350.00,345.69,34.56,0000 0000 0000 0000 000000
2014-11-01 03:52:19,0.11,6.82,0.00,23.30,27.75,30.68,4.82,28.54,1011.24,2027.31,1552.54,1949.93,2068.38,349.77,345.37,34.59,0000 0000 0000 0000 000000
2014-11-01 03:57:20,0.17,6.82,0.00,23.32,27.75,30.65,4.79,28.53,1011.23,2027.25,1551.77,1949.12,2067.82,349.74,345.11,34.62,0000 0000 0000 0000 000000
2014-11-01 04:02:21,0.13,6.83,0.00,23.19,27.75,30.62,4.77,28.63,1011.24,2027.20,1551.01,1948.74,2067.05,350.02,345.61,34.65,0000 0000 0000 0000 000000
2014-11-01 04:07:22,0.20,6.83,0.00,23.02,27.75,30.70,4.72,28.65,1011.24,2027.31,1550.16,1948.03,2066.43,349.35,345.19,34.68,0000 0000 0000 0000 000000
2014-11-01 04:12:23,0.21,6.84,0.00,23.10,27.75,30.74,4.68,28.72,1011.25,2027.27,1549.28,1947.28,2065.69,349.17,344.85,34.71,0000 0000 0000 0000 000000
2014-11-01 04:17:25,0.16,6.84,0.00,23.17,27.75,30.74,4.74,28.62,1011.41,2027.28,1548.43,1946.71,2064.95,349.68,345.39,34.74,0000 0000 0000 0000 000000
2014-11-01 04:22:26,0.21,6.85,0.00,23.20,27.75,30.74,4.79,28.54,1011.69,2027.23,1547.48,1946.02,2064.10,350.08,345.88,34.77,0000 0000 0000 0000 000000
2014-11-01 04:27:27,0.18,6.86,0.00,23.23,27.75,30.71,4.70,28.52,1011.73,2027.27,1546.66,1945.27,2063.40,349.20,345.23,34.80,0000 0000 0000 0000 000000
2014-11-01 04:32:28,0.19,6.86,0.00,23.35,27.75,30.68,4.81,28.55,1011.73,2027.30,1545.80,1944.67,2062.72,349.92,345.71,34.83,0000 0000 0000 0000 000000
2014-11-01 04:37:30,0.12,6.87,0.00,23.16,27.75,30.68,4.80,28.63,1011.73,2027.20,1544.87,1943.99,2061.93,350.13,346.26,34.85,0000 0000 0000 0000 000000
2014-11-01 04:42:31,0.22,6.87,0.00,22.99,27.75,30.68,4.76,28.46,1011.73,2027.12,1544.04,1943.17,2061.08,349.96,346.07,34.88,0000 0000 0000 0000 000000
2014-11-01 04:47:32,0.20,6.88,0.00,23.09,27.75,30.72,4.73,28.49,1011.73,2027.10,1543.17,1942.60,2060.36,349.33,345.43,34.91,0000 0000 0000 0000 000000
2014-11-01 04:52:34,0.15,6.88,0.00,23.21,27.75,30.73,4.74,28.56,1011.73,2027.06,1542.28,1941.92,2059.62,350.59,346.24,34.94,0000 0000 0000 0000 000000
2014-11-01 04:57:35,0.21,6.89,0.00,23.33,27.75,30.69,4.44,26.57,1011.73,2027.06,1541.42,1941.08,2058.97,329.62,325.50,34.97,0000 0000 0000 0000 000009
2014-11-01 05:02:36,0.17,0.23,0.00,23.13,27.75,30.69,4.51,25.73,1011.74,2031.83,3370.63,3288.15,3563.66,331.19,327.19,0.00,0000 0000 0000 0000 000000
2014-11-01 05:07:38,0.17,0.00,0.00,22.94,27.75,30.71,4.78,26.70,1011.73,2031.99,3429.39,3332.64,3612.91,350.30,346.40,0.03,0000 0000 0000 0000 000000
2014-11-01 05:12:39,0.19,0.01,0.00,23.08,27.75,30.73,4.75,26.68,1011.51,2031.99,3426.55,3330.89,3610.43,350.12,345.87,0.06,0000 0000 0000 0000 000000
2014-11-01 05:17:41,0.19,0.01,0.00,23.20,27.75,30.75,4.78,26.87,1011.26,2031.98,3423.86,3329.21,3608.22,350.10,345.94,0.09,0000 0000 0000 0000 000000
2014-11-01 05:22:42,0.20,0.02,0.00,23.29,27.75,30.73,4.77,26.89,1011.25,2031.98,3421.12,3327.51,3606.07,350.25,345.56,0.12,0000 0000 0000 0000 000000
2014-11-01 05:27:43,0.19,0.02,0.00,23.34,27.75,30.70,4.79,26.83,1011.25,2031.97,3418.53,3325.82,3603.93,349.98,345.31,0.15,0000 0000 0000 0000 000000
2014-11-01 05:32:45,0.17,0.03,0.00,23.24,27.75,30.69,4.79,26.77,1011.25,2031.96,3416.21,3324.29,3602.02,350.27,345.92,0.18,0000 0000 0000 0000 000000
2014-11-01 05:37:46,0.17,0.03,0.00,23.00,27.75,30.70,4.81,26.88,1011.23,2031.98,3413.97,3322.85,3600.30,350.44,346.43,0.21,0000 0000 0000 0000 000000
2014-11-01 05:42:47,0.15,0.04,0.00,22.95,27.74,30.74,4.75,26.90,1011.16,2031.98,3411.76,3321.46,3598.57,349.95,345.84,0.24,0000 0000 0000 0000 000000
2014-11-01 05:47:48,0.16,0.04,0.00,23.05,27.74,30.74,4.82,26.92,1011.20,2031.99,3409.61,3319.96,3596.85,350.47,346.31,0.27,0000 0000 0000 0000 000000
2014-11-01 05:52:50,0.16,0.05,0.00,23.19,27.73,30.72,4.77,26.78,1011.24,2031.98,3407.34,3318.40,3595.05,349.80,345.43,0.30,0000 0000 0000 0000 000000
2014-11-01 05:57:51,0.19,0.05,0.00,23.33,27.73,30.71,4.72,26.68,1011.25,2031.99,3404.98,3316.73,3593.16,349.68,345.02,0.32,0000 0000 0000 0000 000000
2014-11-01 06:02:52,0.15,0.06,0.00,23.12,27.72,30.69,4.83,26.73,1011.29,2031.99,3402.65,3315.21,3591.33,350.35,346.01,0.35,0000 0000 0000 0000 000000
2014-11-01 06:07:54,0.18,0.06,0.00,22.94,27.72,30.71,4.85,26.73,1011.28,2031.99,3400.31,3313.59,3589.48,350.87,346.79,0.38,0000 0000 0000 0000 000000
2014-11-01 06:12:55,0.15,0.07,0.00,23.08,27.72,30.73,4.84,26.86,1011.29,2031.97,3398.13,3312.05,3587.72,351.01,346.64,0.41,0000 0000 0000 0000 000000
2014-11-01 06:17:56,0.18,0.07,0.00,23.19,27.72,30.74,4.80,26.88,1011.61,2031.96,3395.83,3310.45,3585.90,350.01,345.83,0.44,0000 0000 0000 0000 000000
2014-11-01 06:22:58,0.18,0.08,0.00,23.31,27.72,30.72,4.74,26.75,1011.73,2031.96,3393.39,3308.76,3583.98,349.88,345.65,0.47,0000 0000 0000 0000 000000
2014-11-01 06:27:59,0.15,0.08,0.00,23.08,27.72,30.69,4.83,26.78,1011.73,2031.97,3391.15,3307.20,3582.40,349.90,345.82,0.50,0000 0000 0000 0000 000000
2014-11-01 06:33:00,0.17,0.09,0.00,22.91,27.72,30.70,4.77,26.65,1011.73,2031.98,3389.07,3305.67,3580.66,349.77,345.83,0.53,0000 0000 0000 0000 000000
2014-11-01 06:38:02,0.16,0.09,0.00,23.02,27.72,30.70,4.77,26.88,1011.74,2031.97,3386.78,3304.13,3578.93,349.98,346.04,0.56,0000 0000 0000 0000 000000
2014-11-01 06:43:03,0.17,0.10,0.00,23.14,27.71,30.72,4.75,26.75,1011.75,2031.98,3384.47,3302.52,3577.11,350.04,345.90,0.59,0000 0000 0000 0000 000000
2014-11-01 06:48:05,0.17,0.10,0.00,23.21,27.71,30.69,4.82,26.73,1011.74,2031.98,3382.21,3300.94,3575.37,350.43,346.09,0.62,0000 0000 0000 0000 000000
2014-11-01 06:53:06,0.16,0.11,0.00,23.35,27.71,30.70,4.75,26.73,1011.73,2031.99,3380.04,3299.46,3573.62,349.64,345.37,0.65,0000 0000 0000 0000 000000
2014-11-01 06:58:07,0.15,0.11,0.00,23.19,27.71,30.63,4.80,26.76,1011.73,2031.99,3378.02,3297.96,3571.97,349.94,345.66,0.68,0000 0000 0000 0000 000000
2014-11-01 07:03:08,0.15,0.12,0.00,23.03,27.71,30.65,4.69,26.73,1011.74,2031.97,3376.04,3296.64,3570.49,350.23,346.11,0.71,0000 0000 0000 0000 000000
2014-11-01 07:08:09,0.14,0.12,0.00,22.96,27.70,30.69,4.73,26.64,1011.74,2031.96,3374.06,3295.29,3568.84,349.75,345.76,0.73,0000 0000 0000 0000 000000
2014-11-01 07:13:11,0.14,0.12,0.00,23.08,27.70,30.71,4.81,26.81,1011.75,2031.97,3372.24,3293.93,3567.49,349.88,345.87,0.76,0000 0000 0000 0000 000000
2014-11-01 07:18:12,0.14,0.13,0.00,23.14,27.70,30.71,4.79,26.83,1011.75,2031.98,3370.33,3292.67,3565.99,349.99,345.92,0.79,0000 0000 0000 0000 000000
2014-11-01 07:23:13,0.15,0.13,0.00,23.19,27.70,30.71,4.74,26.72,1011.74,2031.97,3368.26,3291.23,3564.43,349.81,345.53,0.82,0000 0000 0000 0000 000000
2014-11-01 07:28:14,0.16,0.14,0.00,23.31,27.70,30.67,4.81,26.73,1011.73,2031.95,3366.16,3289.72,3562.76,350.34,345.99,0.85,0000 0000 0000 0000 000000
2014-11-01 07:33:16,0.14,0.14,0.00,23.15,27.70,30.63,4.77,26.63,1011.74,2031.94,3364.08,3288.30,3561.17,350.27,346.14,0.88,0000 0000 0000 0000 000000
2014-11-01 07:38:17,0.16,0.15,0.00,22.95,27.70,30.65,4.81,26.88,1011.73,2031.91,3362.03,3286.83,3559.64,350.26,346.37,0.91,0000 0000 0000 0000 000000
2014-11-01 07:43:18,0.13,0.15,0.00,22.94,27.70,30.69,4.76,26.88,1011.73,2031.96,3360.25,3285.64,3558.22,349.89,345.87,0.94,0000 0000 0000 0000 000000
2014-11-01 07:48:19,0.13,0.16,0.00,23.11,27.70,30.71,4.81,26.93,1011.74,2031.97,3358.44,3284.41,3556.81,350.02,345.91,0.97,0000 0000 0000 0000 000000
2014-11-01 07:53:21,0.13,0.16,0.00,23.20,27.70,30.71,4.82,26.89,1011.74,2031.98,3356.70,3283.25,3555.50,349.79,345.68,1.00,0000 0000 0000 0000 000000
2014-11-01 07:58:22,0.12,0.16,0.00,23.30,27.70,30.67,4.73,26.92,1011.78,2031.97,3355.03,3281.99,3554.09,350.26,345.85,1.03,0000 0000 0000 0000 000000
2014-11-01 08:03:24,0.13,0.17,0.00,23.11,27.70,30.64,4.80,26.77,1012.12,2031.93,3353.32,3280.73,3552.68,349.86,345.88,1.06,0000 0000 0000 0000 000000
2014-11-01 08:08:25,0.13,0.17,0.00,22.89,27.70,30.66,4.84,26.77,1012.22,2031.95,3351.63,3279.60,3551.52,350.45,346.72,1.09,0000 0000 0000 0000 000000
2014-11-01 08:13:27,0.12,0.18,0.00,22.96,27.70,30.69,4.74,26.79,1012.22,2031.97,3349.91,3278.41,3550.17,349.88,346.09,1.12,0000 0000 0000 0000 000000
2014-11-01 08:18:28,0.13,0.18,0.00,23.16,27.70,30.65,4.77,26.80,1012.23,2031.97,3348.20,3277.26,3548.83,349.77,345.57,1.15,0000 0000 0000 0000 000000
2014-11-01 08:23:29,0.12,0.18,0.00,22.99,27.70,30.64,4.73,26.77,1012.22,2031.98,3346.48,3275.99,3547.54,349.42,345.62,1.17,0000 0000 0000 0000 000000
2014-11-01 08:28:31,0.14,0.19,0.00,22.97,27.70,30.69,4.77,26.70,1012.15,2031.98,3344.68,3274.77,3546.15,349.90,346.20,1.20,0000 0000 0000 0000 000000
2014-11-01 08:33:32,0.13,0.19,0.00,23.11,27.69,30.68,4.75,26.82,1011.79,2031.99,3342.94,3273.62,3544.80,349.90,345.81,1.23,0000 0000 0000 0000 000000
2014-11-01 08:38:33,0.13,0.19,0.00,23.19,27.68,30.67,4.71,26.79,1012.11,2031.97,3341.15,3272.31,3543.44,349.88,345.87,1.26,0000 0000 0000 0000 000000
2014-11-01 08:43:34,0.11,0.20,0.00,23.26,27.68,30.67,4.75,26.77,1012.23,2031.96,3339.54,3271.13,3542.04,350.09,345.84,1.29,0000 0000 0000 0000 000000
2014-11-01 08:48:35,0.14,0.20,0.00,23.28,27.69,30.60,4.78,26.78,1012.23,2031.94,3337.86,3269.95,3540.77,350.24,346.15,1.32,0000 0000 0000 0000 000000
2014-11-01 08:53:36,0.12,0.21,0.00,23.07,27.69,30.59,4.76,26.73,1012.34,2031.92,3336.17,3268.77,3539.53,350.16,346.24,1.35,0000 0000 0000 0000 000000
2014-11-01 08:58:37,0.13,0.21,0.00,22.95,27.69,30.61,4.74,26.73,1012.43,2031.94,3334.51,3267.54,3538.27,349.85,346.03,1.38,0000 0000 0000 0000 000000
2014-11-01 09:03:39,0.13,0.21,0.00,23.06,27.69,30.65,4.84,26.73,1012.65,2031.95,3332.80,3266.41,3536.84,349.92,346.03,1.41,0000 0000 0000 0000 000000
2014-11-01 09:08:40,0.12,0.22,0.00,23.19,27.69,30.60,4.79,26.78,1012.66,2031.96,3331.09,3265.22,3535.60,349.92,346.16,1.44,0000 0000 0000 0000 000000
2014-11-01 09:13:41,0.12,0.22,0.00,23.03,27.69,30.61,4.76,26.73,1012.70,2031.97,3329.40,3264.03,3534.27,350.23,346.39,1.47,0000 0000 0000 0000 000000
2014-11-01 09:18:43,0.12,0.23,0.00,22.88,27.68,30.64,4.76,26.73,1012.71,2031.97,3327.70,3262.96,3532.95,350.40,346.86,1.50,0000 0000 0000 0000 000000
2014-11-01 09:23:44,0.14,0.23,0.00,23.05,27.68,30.68,4.73,26.72,1012.71,2031.97,3326.04,3261.78,3531.61,349.65,346.06,1.53,0000 0000 0000 0000 000000
2014-11-01 09:28:46,0.13,0.23,0.00,23.19,27.68,30.68,4.75,26.68,1012.71,2031.98,3324.27,3260.49,3530.18,349.91,345.83,1.56,0000 0000 0000 0000 000000
2014-11-01 09:33:47,0.14,0.24,0.00,23.32,27.68,30.65,4.82,26.84,1012.70,2031.97,3322.35,3259.16,3528.64,350.36,346.34,1.58,0000 0000 0000 0000 000000
2014-11-01 09:38:49,0.19,0.24,0.00,23.29,27.68,30.61,4.83,26.93,1012.64,2031.92,3320.03,3257.53,3526.88,349.81,345.71,1.61,0000 0000 0000 0000 000000
2014-11-01 09:43:50,0.16,0.25,0.00,22.99,27.68,30.63,4.69,26.88,1012.40,2031.96,3317.75,3255.93,3525.19,349.91,346.46,1.64,0000 0000 0000 0000 000000
2014-11-01 09:48:52,0.17,0.25,0.00,22.97,27.69,30.67,4.68,26.94,1012.54,2031.95,3315.46,3254.40,3523.46,349.41,345.80,1.67,0000 0000 0000 0000 000000
2014-11-01 09:53:53,0.18,0.26,0.00,23.14,27.69,30.68,4.75,26.93,1012.58,2031.90,3313.04,3252.68,3521.61,350.21,346.20,1.70,0000 0000 0000 0000 000000
2014-11-01 09:58:54,0.16,0.26,0.00,23.25,27.69,30.67,4.77,26.80,1012.59,2031.75,3310.48,3250.86,3519.73,350.25,346.31,1.73,0000 0000 0000 0000 000000
2014-11-01 10:03:56,0.20,0.27,0.00,23.28,27.70,30.64,4.74,26.76,1012.62,2031.89,3308.17,3249.24,3518.04,349.43,345.29,1.76,0000 0000 0000 0000 000000
2014-11-01 10:08:57,0.17,0.27,0.00,23.06,27.70,30.63,4.75,26.74,1012.61,2031.87,3305.76,3247.57,3516.18,349.98,346.17,1.79,0000 0000 0000 0000 000000
2014-11-01 10:13:58,0.17,0.28,0.00,22.98,27.69,30.65,4.76,26.75,1012.62,2031.82,3303.38,3245.85,3514.35,349.99,346.32,1.82,0000 0000 0000 0000 000000
2014-11-01 10:19:00,0.19,0.28,0.00,23.13,27.69,30.69,4.73,26.76,1012.58,2031.88,3301.02,3244.25,3512.60,350.19,346.24,1.85,0000 0000 0000 0000 000000
2014-11-01 10:24:01,0.19,0.29,0.00,23.20,27.69,30.71,4.81,26.79,1012.60,2031.90,3298.61,3242.54,3510.71,349.85,346.15,1.88,0000 0000 0000 0000 000000
2014-11-01 10:29:02,0.16,0.30,0.00,23.26,27.70,30.66,4.75,26.81,1012.68,2031.83,3296.26,3240.82,3508.82,349.58,345.60,1.91,0000 0000 0000 0000 000000
2014-11-01 10:34:03,0.17,0.30,0.00,23.31,27.70,30.63,4.70,26.73,1012.70,2031.79,3293.81,3239.12,3506.92,349.92,345.90,1.94,0000 0000 0000 0000 000000
2014-11-01 10:39:05,0.12,0.31,0.00,23.04,27.70,30.65,4.90,26.96,1012.71,2031.48,3291.32,3237.35,3504.99,350.54,346.72,1.97,0000 0000 0000 0000 000000
2014-11-01 10:44:06,0.22,0.31,0.00,22.93,27.70,30.67,4.69,26.63,1012.71,2031.61,3289.09,3235.73,3503.28,349.81,346.32,1.99,0000 0000 0000 0000 000000
2014-11-01 10:49:07,0.19,0.32,0.00,23.07,27.70,30.70,4.78,26.78,1012.71,2031.77,3286.82,3234.25,3501.53,350.51,346.69,2.02,0000 0000 0000 0000 000000
2014-11-01 10:54:08,0.19,0.32,0.00,23.20,27.70,30.71,4.87,26.73,1012.74,2031.76,3284.43,3232.58,3499.68,350.32,346.37,2.05,0000 0000 0000 0000 000000
2014-11-01 10:59:10,0.20,0.33,0.00,23.30,27.70,30.69,4.73,26.71,1012.75,2031.81,3282.10,3230.85,3497.83,349.83,345.75,2.08,0000 0000 0000 0000 000000
2014-11-01 11:04:11,0.15,0.33,0.00,23.26,27.70,30.65,4.75,26.67,1012.76,2031.77,3279.78,3229.16,3496.02,350.00,345.97,2.11,0000 0000 0000 0000 000000
2014-11-01 11:09:12,0.16,0.34,0.00,23.05,27.70,30.65,4.77,26.77,1012.82,2031.57,3277.36,3227.51,3494.17,349.60,346.06,2.14,0000 0000 0000 0000 000000
2014-11-01 11:14:13,0.20,0.34,0.00,22.96,27.70,30.69,4.83,26.81,1012.97,2031.51,3274.96,3225.77,3492.34,350.27,346.86,2.17,0000 0000 0000 0000 000000
2014-11-01 11:19:14,0.16,0.35,0.00,23.12,27.70,30.70,4.67,26.74,1012.82,2031.49,3272.56,3224.18,3490.49,349.17,345.50,2.20,0000 0000 0000 0000 000000
2014-11-01 11:24:15,0.19,0.35,0.00,23.25,27.70,30.69,4.84,26.85,1012.73,2031.46,3270.11,3222.44,3488.66,350.11,346.31,2.23,0000 0000 0000 0000 000000
2014-11-01 11:29:17,0.18,0.36,0.00,23.13,27.70,30.69,4.80,26.78,1012.72,2031.51,3267.65,3220.69,3486.73,350.24,346.44,2.26,0000 0000 0000 0000 000000
2014-11-01 11:34:18,0.18,0.37,0.00,22.88,27.70,30.69,4.77,26.72,1012.71,2031.37,3265.12,3218.91,3484.77,350.25,346.54,2.29,0000 0000 0000 0000 000000
2014-11-01 11:39:19,0.17,0.37,0.00,23.01,27.70,30.69,4.85,26.77,1012.71,2031.34,3262.76,3217.17,3482.87,350.48,346.70,2.32,0000 0000 0000 0000 000000
2014-11-01 11:44:21,0.19,0.38,0.00,23.12,27.70,30.69,4.76,26.74,1012.71,2031.40,3260.43,3215.53,3481.06,349.88,346.05,2.35,0000 0000 0000 0000 000000
2014-11-01 11:49:22,0.20,0.38,0.00,23.20,27.70,30.68,4.73,26.78,1012.72,2031.29,3257.93,3213.73,3479.15,350.31,346.45,2.38,0000 0000 0000 0000 000000
2014-11-01 11:54:23,0.17,0.39,0.00,23.28,27.70,30.65,4.79,26.72,1012.73,2031.19,3255.41,3211.94,3477.18,350.22,346.16,2.40,0000 0000 0000 0000 000000
2014-11-01 11:59:25,0.17,0.39,0.00,23.06,27.70,30.66,4.76,26.73,1012.76,2031.10,3252.85,3210.12,3475.16,350.05,346.53,2.43,0000 0000 0000 0000 000000
2014-11-01 12:04:26,0.19,0.40,0.00,22.90,27.70,30.69,4.84,26.77,1012.73,2031.08,3250.37,3208.41,3473.33,350.51,346.57,2.46,0000 0000 0000 0000 000000
2014-11-01 12:09:27,0.21,0.40,0.00,23.07,27.70,30.69,4.77,26.76,1012.71,2031.12,3247.92,3206.64,3471.46,350.18,346.50,2.49,0000 0000 0000 0000 000000
2014-11-01 12:14:28,0.19,0.41,0.00,23.19,27.70,30.67,4.78,26.82,1012.71,2031.10,3245.38,3204.87,3469.47,349.95,346.14,2.52,0000 0000 0000 0000 000000
2014-11-01 12:19:29,0.19,0.42,0.00,23.28,27.70,30.68,4.81,26.76,1012.71,2031.05,3242.94,3203.10,3467.52,349.99,346.01,2.55,0000 0000 0000 0000 000000
2014-11-01 12:24:31,0.19,0.42,0.00,23.15,27.70,30.64,4.79,26.89,1012.71,2031.07,3240.50,3201.42,3465.67,350.27,346.51,2.58,0000 0000 0000 0000 000000
2014-11-01 12:29:32,0.20,0.43,0.00,22.87,27.70,30.66,4.82,26.86,1012.71,2031.10,3238.04,3199.74,3463.81,350.06,346.48,2.61,0000 0000 0000 0000 000000
2014-11-01 12:34:33,0.19,0.43,0.00,23.03,27.70,30.67,4.75,26.77,1012.69,2031.13,3235.53,3198.03,3461.88,350.46,346.77,2.64,0000 0000 0000 0000 000000
2014-11-01 12:39:35,0.19,0.44,0.00,23.17,27.70,30.67,4.79,26.93,1012.70,2031.05,3232.86,3196.14,3459.84,350.24,346.44,2.67,0000 0000 0000 0000 000000
2014-11-01 12:44:36,0.19,0.44,0.00,23.15,27.70,30.68,4.84,26.79,1012.71,2031.08,3230.44,3194.46,3458.02,350.35,346.55,2.70,0000 0000 0000 0000 000000
2014-11-01 12:49:37,0.20,0.45,0.00,22.90,27.70,30.70,4.83,26.78,1012.72,2031.12,3227.99,3192.77,3456.18,350.49,346.93,2.73,0000 0000 0000 0000 000000
2014-11-01 12:54:39,0.18,0.46,0.00,22.98,27.70,30.71,4.84,26.82,1012.71,2031.09,3225.46,3191.01,3454.24,350.06,346.44,2.76,0000 0000 0000 0000 000000
2014-11-01 12:59:40,0.19,0.46,0.00,23.11,27.70,30.72,4.81,26.82,1012.71,2031.08,3222.98,3189.26,3452.42,350.31,346.50,2.79,0000 0000 0000 0000 000000
2014-11-01 13:04:41,0.20,0.47,0.00,23.24,27.70,30.68,4.82,26.88,1012.70,2031.10,3220.48,3187.48,3450.49,350.24,346.40,2.81,0000 0000 0000 0000 000000